TimeEDT,TemperatureF,Dew PointF,Humidity,Sea Level PressureIn,VisibilityMPH,Wind Direction,Wind SpeedMPH,Gust SpeedMPH,PrecipitationIn,Events,Conditions,WindDirDegrees,DateUTC
12:43 AM,66.2,62.6,88,29.77,9.0,Variable,5.8,-,N/A,,Overcast,0,2012-10-20 04:43:00
12:54 AM,66.9,63.0,87,29.77,10.0,SE,3.5,-,N/A,,Mostly Cloudy,140,2012-10-20 04:54:00
1:14 AM,66.2,62.6,88,29.78,8.0,Calm,Calm,-,0.00,Rain,Light Rain,0,2012-10-20 05:14:00
1:17 AM,66.2,62.6,88,29.78,9.0,SSE,3.5,-,0.00,Rain,Light Rain,150,2012-10-20 05:17:00
1:26 AM,66.2,62.6,88,29.76,9.0,Variable,3.5,-,0.00,,Overcast,0,2012-10-20 05:26:00
1:54 AM,66.0,63.0,90,29.76,8.0,Variable,4.6,-,0.00,,Overcast,0,2012-10-20 05:54:00
2:32 AM,66.2,62.6,88,29.72,10.0,Variable,3.5,-,N/A,,Overcast,0,2012-10-20 06:32:00
2:54 AM,66.0,63.0,90,29.73,10.0,WSW,3.5,-,N/A,,Overcast,250,2012-10-20 06:54:00
3:07 AM,66.2,62.6,88,29.73,7.0,Calm,Calm,-,0.02,Rain-Thunderstorm,Rain,0,2012-10-20 07:07:00
3:16 AM,66.2,62.6,88,29.74,1.8,Variable,3.5,-,0.10,Rain-Thunderstorm,Heavy Thunderstorms and Rain,0,2012-10-20 07:16:00
3:28 AM,66.2,62.6,88,29.73,3.0,ESE,5.8,-,0.17,Rain-Thunderstorm,Heavy Rain,110,2012-10-20 07:28:00
3:31 AM,66.2,62.6,88,29.74,2.5,ESE,4.6,-,0.19,Rain,Heavy Rain,110,2012-10-20 07:31:00
3:42 AM,66.2,62.6,88,29.74,5.0,Variable,4.6,-,0.22,Rain,Light Rain,0,2012-10-20 07:42:00
3:54 AM,66.0,63.0,90,29.75,5.0,SSE,6.9,-,0.24,Rain,Rain,160,2012-10-20 07:54:00
4:14 AM,66.2,62.6,88,29.75,1.8,South,5.8,-,0.15,Rain,Heavy Rain,180,2012-10-20 08:14:00
4:25 AM,66.2,64.4,94,29.75,3.0,SSE,4.6,-,0.22,Rain,Rain,160,2012-10-20 08:25:00
4:49 AM,66.2,64.4,94,29.75,4.0,Variable,4.6,-,0.31,Rain-Thunderstorm,Heavy Rain,0,2012-10-20 08:49:00
4:54 AM,66.9,64.0,90,29.74,5.0,Variable,3.5,-,0.33,Rain-Thunderstorm,Heavy Rain,0,2012-10-20 08:54:00
5:04 AM,66.2,64.4,94,29.74,5.0,South,4.6,-,0.04,Rain,Rain,190,2012-10-20 09:04:00
5:46 AM,66.2,62.6,88,29.70,10.0,Calm,Calm,-,0.07,Rain,Light Rain,0,2012-10-20 09:46:00
5:54 AM,66.9,63.0,87,29.70,10.0,Calm,Calm,-,0.07,,Overcast,0,2012-10-20 09:54:00
6:22 AM,66.2,62.6,88,29.69,10.0,Calm,Calm,-,N/A,,Mostly Cloudy,0,2012-10-20 10:22:00
6:41 AM,66.2,62.6,88,29.69,10.0,Calm,Calm,-,N/A,,Scattered Clouds,0,2012-10-20 10:41:00
6:54 AM,64.9,62.1,90,29.69,10.0,Calm,Calm,-,N/A,,Clear,0,2012-10-20 10:54:00
7:05 AM,64.4,62.6,94,29.69,2.0,SE,3.5,-,N/A,,Clear,130,2012-10-20 11:05:00
7:14 AM,64.4,62.6,94,29.70,2.0,SE,4.6,-,N/A,,Scattered Clouds,140,2012-10-20 11:14:00
7:28 AM,64.4,62.6,94,29.69,2.0,SE,4.6,-,N/A,,Mostly Cloudy,130,2012-10-20 11:28:00
7:54 AM,64.9,63.0,93,29.69,4.0,Variable,3.5,-,N/A,,Overcast,0,2012-10-20 11:54:00
8:12 AM,66.2,62.6,88,29.69,10.0,Calm,Calm,-,N/A,,Overcast,0,2012-10-20 12:12:00
8:47 AM,66.2,62.6,88,29.71,9.0,ESE,3.5,-,N/A,,Overcast,120,2012-10-20 12:47:00
8:54 AM,66.0,63.0,90,29.70,7.0,ESE,4.6,-,0.00,Rain,Light Rain,110,2012-10-20 12:54:00
9:54 AM,68.0,64.0,87,29.68,10.0,South,3.5,-,0.00,,Overcast,170,2012-10-20 13:54:00
10:01 AM,68.0,64.4,88,29.68,10.0,Variable,3.5,-,N/A,,Overcast,0,2012-10-20 14:01:00
10:12 AM,69.8,64.4,83,29.68,10.0,Calm,Calm,-,N/A,,Overcast,0,2012-10-20 14:12:00
10:54 AM,69.1,64.0,84,29.68,10.0,South,4.6,-,N/A,,Overcast,180,2012-10-20 14:54:00
11:09 AM,69.8,64.4,83,29.68,10.0,SW,5.8,-,N/A,,Mostly Cloudy,220,2012-10-20 15:09:00
11:45 AM,71.6,62.6,73,29.68,10.0,SW,6.9,-,N/A,,Mostly Cloudy,220,2012-10-20 15:45:00
11:54 AM,72.0,64.0,76,29.67,10.0,WSW,8.1,-,N/A,,Mostly Cloudy,250,2012-10-20 15:54:00
12:22 PM,73.4,62.6,69,29.66,10.0,SW,8.1,-,N/A,,Mostly Cloudy,230,2012-10-20 16:22:00
12:33 PM,73.4,60.8,65,29.65,10.0,Variable,5.8,-,N/A,,Scattered Clouds,0,2012-10-20 16:33:00
12:54 PM,73.9,61.0,64,29.64,10.0,SSW,8.1,-,N/A,,Partly Cloudy,210,2012-10-20 16:54:00
1:54 PM,73.0,57.0,57,29.62,10.0,SW,5.8,-,N/A,,Scattered Clouds,220,2012-10-20 17:54:00
2:54 PM,73.0,54.0,51,29.62,10.0,SW,11.5,-,N/A,,Scattered Clouds,220,2012-10-20 18:54:00
3:54 PM,75.0,51.1,43,29.62,10.0,SSW,10.4,-,N/A,,Clear,200,2012-10-20 19:54:00
4:54 PM,73.9,48.9,41,29.63,10.0,SW,11.5,-,N/A,,Scattered Clouds,220,2012-10-20 20:54:00
5:54 PM,68.0,48.0,49,29.63,10.0,SW,4.6,-,N/A,,Clear,220,2012-10-20 21:54:00
6:54 PM,64.9,48.0,54,29.65,10.0,Calm,Calm,-,N/A,,Clear,0,2012-10-20 22:54:00
7:54 PM,61.0,48.0,62,29.66,10.0,SSW,3.5,-,N/A,,Clear,200,2012-10-20 23:54:00
8:54 PM,60.1,48.0,64,29.69,10.0,SSW,5.8,-,N/A,,Clear,200,2012-10-21 00:54:00
9:54 PM,60.1,48.0,64,29.71,10.0,SSW,6.9,-,N/A,,Clear,210,2012-10-21 01:54:00
10:54 PM,60.1,46.0,60,29.74,10.0,West,8.1,-,N/A,,Scattered Clouds,270,2012-10-21 02:54:00
11:54 PM,57.0,43.0,59,29.74,10.0,West,8.1,-,N/A,,Clear,260,2012-10-21 03:54:00